Regional Weather Roundup
Issued by NWS

Home | Current Version | Previous Version | Graphics & Text | Print | Product List | Glossary On
Versions: 1 2 3 4 5 6 7 8 9 10 11 12 13 14 15 16 17 18 19 20 21 22 23 24 25 26 27 28 29 30 31 32 33 34 35 36 37 38 39 40 41 42 43 44 45 46 47 48 49 50
027
ASUS45 KBOU 130407
RWRCO

WEATHER ROUNDUP FOR COLORADO
NATIONAL WEATHER SERVICE DENVER/BOULDER CO
900 PM MST FRI FEB 12 2016

NOTE: "FAIR" INDICATES FEW OR NO CLOUDS BELOW 12000 FEET WITH NO
SIGNIFICANT WEATHER AND/OR OBSTRUCTIONS TO VISIBILITY.

COZ001>005-013-030-031-130500-
...NORTHWEST COLORADO...

CITY           SKY/WX    TMP DP  RH WIND       PRES   REMARKS
CRAIG          FAIR      17  14  88 CALM      30.34R
HAYDEN         FAIR      30  16  55 SE8       30.32S WCI  23
MEEKER         FAIR      27  20  75 CALM      30.32S
MOUNT WERNER   NOT AVBL
STEAMBOAT SPGS FAIR      27  21  77 CALM      30.34S
WALDEN         FAIR      34  21  60 S5        30.34F WCI  30
$$

COZ006>008-011-130500-
...WEST CENTRAL VALLEYS...

CITY           SKY/WX    TMP DP  RH WIND       PRES   REMARKS
GRAND JUNCTION FAIR      32  28  85 E3        30.33S
MONTROSE       FAIR      34  26  72 S5        30.37R WCI  30
EAGLE          CLEAR     32  27  80 CALM      30.37S
RIFLE          FAIR      33  22  63 CALM      30.34S
DELTA          FAIR      36  30  77 NE3       30.35S
NUCLA          FAIR      36  27  69 E12       30.38R
$$

COZ017>023-064>068-130500-
...SOUTHWEST COLORADO...

CITY           SKY/WX    TMP DP  RH WIND       PRES   REMARKS
DURANGO        FAIR      32  23  69 CALM      30.37S
CORTEZ         FAIR      30  24  78 E6        30.36R WCI  24
PAGOSA SPRINGS FAIR      34  21  60 CALM      30.41S
TELLURIDE      FAIR      38  22  52 SE7       30.46S
WOLF CREEK PAS FAIR      30  14  51 SW15      30.57F WCI  19
$$

COZ009-010-012-014-032>034-037-058>063-130500-
...CENTRAL COLORADO...

CITY           SKY/WX    TMP DP  RH WIND       PRES   REMARKS
ASPEN          FAIR      32  20  61 SW8       30.37F WCI  25
BUENA VISTA    FAIR      38  23  54 NW9       30.35S
COPPER MTN     FAIR      34  14  44 SW13G18   30.50S WCI  25
BERTHOUD PASS  FAIR      28  18  64 W41G48    30.41F WCI  11
COTTONWOOD PAS FAIR      45  14  29 W15G25    30.41S
GUNNISON       FAIR      10   9  92 CALM      30.49S
KREMMLING      FAIR      10   5  79 CALM      30.40F
LEADVILLE      FAIR      30  15  53 VRB5      30.41F WCI  25
MONARCH PASS   FAIR      30  18  59 SW16      30.62S WCI  19
SALIDA         NOT AVBL
SUNLIGHT       FAIR      34  21  60 CALM      30.49F
WILKERSON PASS FAIR      32  19  59 SW7       30.47F WCI  26
$$

COZ069>075-130500-
...SAN LUIS VALLEY/SANGRE DE CRISTO MOUNTAINS...

CITY           SKY/WX    TMP DP  RH WIND       PRES   REMARKS
ALAMOSA        FAIR      30  25  81 CALM      30.38R
LA VETA PASS   FAIR      34  18  51 S12G21    30.44S WCI  25
SAGUACHE       FAIR      32  23  69 NW15      30.40S WCI  22
$$

COZ035-036-038>040-130500-
...NORTHERN COLORADO FRONT RANGE...

CITY           SKY/WX    TMP DP  RH WIND       PRES   REMARKS
DENVER INTL AP FAIR      34  30  85 S3        30.24F
DMNS CITY PARK   N/A     37  31  79 N2        30.25S
AURORA         PTCLDY    37  33  85 SW5       30.24F
FRONT RANGE AP PTCLDY    34  30  86 S6        30.25S WCI  29
ERIE MUNI ARPT FAIR      32  31  96 CALM      30.26S
BOULDER MUN AP FAIR      34  32  93 N3        30.26S
CENTENNIAL     MOCLDY    39  32  76 SW5       30.24F
BROOMFIELD     NOT AVBL
FORT COLLINS   FAIR      32  27  80 CALM      30.27F
LONGMONT       FAIR      35  32  88 CALM      30.28S
$$

COZ041-046-047-076>085-087-088-130500-
...PIKES PEAK/PALMER DIVIDE AND SOUTHERN FOOTHILLS...

CITY           SKY/WX    TMP DP  RH WIND       PRES   REMARKS
COLO. SPRINGS  MOCLDY    40  28  62 N7        30.28F
A. F. ACADEMY  FAIR      33  27  80 N7        30.28S WCI  27
SCHRIEVER AFB  MOCLDY    40  28  63 NE8       30.28S
ELLICOTT       FAIR     N/A N/A N/A E14G24    30.26F
FALCON         FAIR      40  27  58 E5        30.30S
FORT CARSON    FAIR      39  30  70 NW8       30.26S
LIMON          FAIR      28  28 100 S5        30.28S WCI  23
MONUMENT HILL  FAIR      36  28  75 S9        30.28F
TRINIDAD       FAIR      51  22  31 SW15      30.25S
$$

COZ042>045-048>051-090-091-130500-
...NORTHEAST COLORADO...

CITY           SKY/WX    TMP DP  RH WIND       PRES   REMARKS
GREELEY ARPT   CLOUDY    32  30  93 E12       30.27F WCI  23
AKRON          FOG       29  29 100 SE20      30.27F VSB 1/2 WCI  16
BURLINGTON     FOG       30  27  88 SE16      30.34F VSB 1/2 WCI  19
WRAY           CLOUDY   N/A N/A N/A SE12      30.36F FOG
STERLING       CLOUDY    32  32 100 SE9       30.31S FOG     WCI  24
HOLYOKE        CLOUDY    34  32  93 S14       30.35F WCI  24
FORT MORGAN    FOG       32  31  96 E10       30.28F VSB 1/2 WCI  23
$$

COZ086-089-092>099-130500-
...SOUTHEAST COLORADO...

CITY           SKY/WX    TMP DP  RH WIND       PRES   REMARKS
PUEBLO         FAIR      50  30  46 N10       30.24R
LA JUNTA       FAIR      37  29  72 E21       30.23R
LAMAR          FAIR      32  28  85 E14       30.31R WCI  22
SPRINGFIELD      N/A     36  27  69 SE14      30.31R
$$




USA.gov is the U.S. government's official web portal to all federal, state and local government web resources and services.